Des Moines, IA

5:31 AM CST on February 22, 2017 (GMT -0600)
Des Moines International

Weather History for KDSM - November, 2013

Change the Weather History Date:

Wednesday, November 27, 2013

  Actual Average Record
Temperature  
Mean Temperature 20 °F 33 °F  
Max Temperature 28 °F 41 °F 68 °F (1998)
Min Temperature 11 °F 25 °F -7 °F (1887)
Degree Days  
Heating Degree Days 45 32  
Month to date heating degree days 715 675  
Since 1 July heating degree days 1105 1159  
Cooling Degree Days 0 0  
Month to date cooling degree days 0 0  
Year to date cooling degree days 1353 1066  
Moisture  
Dew Point 9 °F    
Average Humidity 59    
Maximum Humidity 76    
Minimum Humidity 42    
Precipitation  
Precipitation 0.00 in 0.06 in 1.41 in (2006)
Month to date precipitation 1.35 2.00  
Year to date precipitation 31.17 34.41  
Snow  
Snow 0.00 in 0.20 in 3.50 in (1995)
Month to date snowfall 1.4 2.0  
Since 1 July snowfall 1.4 2.4  
Since 1 September snowfall 1.4 2.4  
Snow Depth 0.00 in    
Sea Level Pressure  
Sea Level Pressure 30.31 in    
Wind  
Wind Speed 8 mph (SW)    
Max Wind Speed 17 mph    
Max Gust Speed 21 mph    
Visibility 10 miles    
Events      
T = Trace of Precipitation, MM = Missing Value Source: NWS Daily Summary

Daily Weather History Graph

Daily Weather History Graph

Search for Another Location

Airport or City:

Trip Planner

Search our weather history database for the weather conditions in past years. The results will help you decide how hot, cold, wet, or windy it might be!

Date:

Astronomy

Nov. 27, 2013 Rise Set
Actual Time 7:17 AM CST 4:46 PM CST
Civil Twilight 6:47 AM CST 5:17 PM CST
Nautical Twilight 6:12 AM CST 5:51 PM CST
Astronomical Twilight 5:39 AM CST 6:24 PM CST
Moon 1:16 AM CST (11/27) 1:28 PM CST (11/27)
Length of Visible Light 10h 30m
Length of Day
9h 29m
Waning Crescent, 31% of the Moon is Illuminated
Nov 27
Waning Crescent
Dec 2
New
Dec 9
First Quarter
Dec 17
Full
Dec 25
Last Quarter

Hourly Weather History & Observations

Time (CST) Temp. Windchill Dew Point Humidity Pressure Visibility Wind Dir Wind Speed Gust Speed Precip Events Conditions
12:54 AM 17.1 °F 5.0 °F 7.0 °F 65% 30.40 in 10.0 mi NNW 10.4 mph - N/A   Clear
1:54 AM 16.0 °F 5.3 °F 7.0 °F 68% 30.41 in 10.0 mi NNW 8.1 mph - N/A   Clear
2:54 AM 15.1 °F 2.5 °F 7.0 °F 70% 30.42 in 10.0 mi NNW 10.4 mph - N/A   Clear
3:54 AM 14.0 °F 3.9 °F 6.1 °F 71% 30.41 in 10.0 mi NNW 6.9 mph - N/A   Clear
4:54 AM 12.9 °F 3.8 °F 6.1 °F 74% 30.42 in 10.0 mi NNW 5.8 mph - N/A   Clear
5:54 AM 12.9 °F 2.6 °F 6.1 °F 74% 30.43 in 10.0 mi North 6.9 mph - N/A   Clear
6:54 AM 12.0 °F - 5.0 °F 73% 30.44 in 10.0 mi Calm Calm - N/A   Clear
7:54 AM 12.0 °F 2.7 °F 6.1 °F 77% 30.45 in 10.0 mi NW 5.8 mph - N/A   Clear
8:54 AM 16.0 °F 8.8 °F 7.0 °F 68% 30.43 in 10.0 mi North 4.6 mph - N/A   Clear
9:54 AM 19.0 °F 12.3 °F 8.1 °F 62% 30.44 in 10.0 mi WNW 4.6 mph - N/A   Clear
10:54 AM 21.0 °F 14.6 °F 7.0 °F 55% 30.41 in 10.0 mi SSW 4.6 mph - N/A   Clear
11:54 AM 23.0 °F 15.8 °F 7.0 °F 50% 30.39 in 10.0 mi Variable 5.8 mph - N/A   Clear
12:54 PM 25.0 °F 17.1 °F 8.1 °F 49% 30.35 in 10.0 mi SSW 6.9 mph - N/A   Partly Cloudy
1:54 PM 27.0 °F 21.6 °F 7.0 °F 43% 30.31 in 10.0 mi SW 4.6 mph - N/A   Partly Cloudy
2:54 PM 28.0 °F 19.3 °F 8.1 °F 43% 30.27 in 10.0 mi SSW 9.2 mph - N/A   Scattered Clouds
3:54 PM 27.0 °F 17.3 °F 10.0 °F 49% 30.25 in 10.0 mi SSE 10.4 mph - N/A   Mostly Cloudy
4:54 PM 27.0 °F 16.7 °F 10.9 °F 51% 30.23 in 10.0 mi South 11.5 mph - N/A   Mostly Cloudy
5:54 PM 26.1 °F 16.2 °F 12.0 °F 55% 30.21 in 10.0 mi South 10.4 mph - N/A   Overcast
6:54 PM 26.1 °F 15.0 °F 12.0 °F 55% 30.17 in 10.0 mi South 12.7 mph - N/A   Overcast
7:54 PM 27.0 °F 15.6 °F 12.0 °F 53% 30.15 in 10.0 mi South 13.8 mph - N/A   Overcast
8:54 PM 27.0 °F 18.7 °F 12.0 °F 53% 30.17 in 10.0 mi SSW 8.1 mph - N/A   Mostly Cloudy
9:54 PM 27.0 °F 18.0 °F 12.9 °F 56% 30.15 in 10.0 mi South 9.2 mph - N/A   Mostly Cloudy
10:54 PM 27.0 °F 17.3 °F 12.9 °F 56% 30.12 in 10.0 mi SSE 10.4 mph - N/A   Mostly Cloudy
11:54 PM 25.0 °F 14.8 °F 12.9 °F 60% 30.11 in 10.0 mi South 10.4 mph - N/A   Partly Cloudy